DECAYED

STARLINK-31299, 59080 (Decayed)

Orbit data source: Space-Track

STARLINK-31299, 59080 was a payload satellite owned by SpaceX/Seattle (US) in LEO that was launched on Thu, 29 Feb 2024 UTC via an FALCON 9 launch vehicle from the Air Force Eastern Test Range (AFETR). Payload-class satellites include a variety of spacecraft equipped with specific instruments for various scientific and technological missions. These include communications satellites like Starlink; space stations such as the ISS; scientific satellites like the Hubble; Earth observation satellites from companies like Planet Labs, Umbra, and HawkEye 360; GPS; miniature CubeSats for education and research; and military/defense satellites.

Not visible in the next 10 days
Identifier
59080, 2024-041G
Orbit
Decayed
Country
Flag of USUS
Related business
Manufacturer
SpaceX/Seattle
Mission
Decayed Commercial Communications
Bus & Motor
STARLINK V2M, Unknown motor
Mass
730 kg wet, ~700 kg dry
Launch date (UTC)
2024-02-29 (2 years ago)
Launch vehicle
FALCON 9
Launch site
Air Force Eastern Test Range (AFETR)
Object type
Payload
Rocket body
Debris
Shape & HBR
Box + 2 Pan, 17.7 m
Radar Cross Section
33.884 m², Large (>1 m²)

Expand to show TLE details & history
Last TLE update: 3 months ago

TLE from 3 months ago
0 STARLINK-31299
1 59080U 24041G   26086.40224742  .18612638  89717-5  27789-2 0  9997
2 59080  42.9699  80.0504 0012583 193.5488 166.5066 16.33095970118516
Epoch: 2026-03-27T09:39Z
TLE epoch observation values (Epoch: 2026-03-27T09:39:14.177Z)
Latitude
0.00002°
Longitude
110.40399°
Altitude
192.023 km
Speed
7.788 km/s
True Right ascension
05h 20m 12s
True Declination
0° 00' 00"
Sunlit
Object was in daylight at epoch
Visualization orbit readout
Latitude
Unknown
Longitude
Unknown
Altitude
Unknown
Speed
Unknown
Apparent Right ascension
Unknown
Apparent Declination
Unknown
Sunlit
N/A
Visualization observer readout
Local Sidereal Time
21:24:00
Azimuth
Unknown
Elevation
Unknown
Doppler factor
Unknown
Orbital elements
Apogee altitude
194.532 km
Perigee altitude
178.012 km
Semi-major axis
6,564.409 km
Eccentricity
0.00126
Inclination
42.9699°
RAAN
80.0504°
Arg. of periapsis
193.5488°
True anomaly
166.54019°
Mean anomaly
166.5066°
Eccentric anomaly
166.5234°
Mean motion
4.08084 °/min
Orbital period
88.22 mins
BSTAR
0.0027789
Loading maneuver chart data...
Computing Atmospheric mass density...
Loading historical data...
Loading historical data...
Loading historical data...
Loading historical data...
Loading historical data...
Loading historical data...
Loading historical data...

Documentation

Showing up to 5 results
|